View from above orbital plane
|
View from above satellite
|
Ground track
|
The orbit data is extracted from the following two-line orbital elements,
1 14552U 83122B 21059.47575290 .00000079 00000-0 66527-5 0 9996
2 14552 82.5213 250.5114 0017795 24.8982 335.3087 14.83538194988572
Epoch (UTC): | 28 February 2021 11:25:05 |
Eccentricity: | 0.0017795 |
inclination: | 82.5213° |
perigee height: | 606 km |
apogee height: | 630 km |
right ascension of ascending node: | 250.5114° |
argument of perigee: | 24.8982° |
revolutions per day: | 14.83538194 |
mean anomaly at epoch: | 335.3087° |
orbit number at epoch: | 98857 |
The dashed part of the orbit path shows where the satellite is in the earth's shadow,
|
|